Weather History for Jackson Hawkins Field, MS

Change the Weather History Date:

Friday, August 29, 2014

  Actual Average (KJAN) Record (KJAN)
Temperature  
Mean Temperature 83 °F 80 °F  
Max Temperature 93 °F 91 °F 104 °F (2000)
Min Temperature 73 °F 70 °F 55 °F (1992)
Degree Days  
Heating Degree Days 0 0  
Month to date heating degree days 0  
Since 1 June heating degree days 0  
Since 1 July heating degree days 0  
Cooling Degree Days 18 15  
Month to date cooling degree days 477  
Year to date cooling degree days 1772  
Since 1 June cooling degree days 1414  
Growing Degree Days 33 (Base 50)    
Moisture  
Dew Point 69 °F    
Average Humidity 67    
Maximum Humidity 91    
Minimum Humidity 41    
Precipitation  
Precipitation 0.00 in 0.11 in 3.90 in (2005)
Month to date precipitation 4.02  
Year to date precipitation 37.06  
Sea Level Pressure  
Sea Level Pressure 29.96 in    
Wind  
Wind Speed 3 mph (SSE)    
Max Wind Speed 12 mph    
Max Gust Speed -    
Visibility 10 miles    
Events      
T = Trace of Precipitation, MM = Missing Value Source: NWS Daily Summary

Daily Weather History Graph

Daily Weather History Graph

Search for Another Location

Airport:

Trip Planner

Search our weather history database for the weather conditions in past years. The results will help you decide how hot, cold, wet, or windy it might be!

Date:

Astronomy

Aug. 29, 2014 Rise Set
Actual Time 6:34 AM CDT 7:28 PM CDT
Civil Twilight 6:08 AM CDT 7:54 PM CDT
Nautical Twilight 5:39 AM CDT 8:23 PM CDT
Astronomical Twilight 5:08 AM CDT 8:54 PM CDT
Moon 10:08 AM CDT (8/29) 9:43 PM CDT (8/29)
Length of Visible Light 13h 45m
Length of Day
12h 54m
Waxing Crescent, 15% of the Moon is Illuminated
Aug 29
Waxing Crescent
Sep 2
First Quarter
Sep 8
Full
Sep 15
Last Quarter
Sep 24
New

Hourly Weather History & Observations

Time (CDT) Temp. Heat Index Dew Point Humidity Pressure Visibility Wind Dir Wind Speed Gust Speed Precip Events Conditions
12:53 AM 78.1 °F - 70.0 °F 76% 29.96 in 10.0 mi Calm Calm - N/A   Scattered Clouds
1:53 AM 77.0 °F - 70.0 °F 79% 29.95 in 10.0 mi South 3.5 mph - N/A   Scattered Clouds
2:53 AM 77.0 °F - 71.1 °F 82% 29.95 in 10.0 mi Calm Calm - N/A   Clear
3:53 AM 75.9 °F - 71.1 °F 85% 29.94 in 10.0 mi Calm Calm - N/A   Clear
4:53 AM 75.9 °F - 71.1 °F 85% 29.94 in 10.0 mi Calm Calm - N/A   Clear
5:53 AM 75.9 °F - 71.1 °F 85% 29.96 in 10.0 mi Calm Calm - N/A   Clear
6:53 AM 73.9 °F - 71.1 °F 91% - 9.0 mi SE 5.8 mph - N/A   Clear
7:53 AM 77.0 °F - 72.0 °F 84% 29.98 in 10.0 mi Calm Calm - N/A   Clear
8:53 AM 82.0 °F 87.4 °F 73.0 °F 74% 29.97 in 10.0 mi Calm Calm - N/A   Clear
9:53 AM 84.9 °F 90.1 °F 71.1 °F 63% 29.96 in 10.0 mi Calm Calm - N/A   Clear
10:53 AM 87.1 °F 92.0 °F 70.0 °F 57% 29.99 in 10.0 mi SE 4.6 mph - N/A   Clear
11:53 AM 90.0 °F 94.5 °F 69.1 °F 50% 29.99 in 10.0 mi Variable 6.9 mph - N/A   Clear
12:53 PM 91.9 °F 94.1 °F 64.9 °F 41% 29.96 in 10.0 mi SE 9.2 mph - N/A   Clear
1:53 PM 91.0 °F 93.8 °F 66.0 °F 44% 29.97 in 10.0 mi SE 10.4 mph - N/A   Partly Cloudy
3:53 PM 93.0 °F 95.9 °F 66.0 °F 41% 29.92 in 10.0 mi SSE 9.2 mph - N/A   Scattered Clouds
4:53 PM 91.9 °F 94.5 °F 66.0 °F 42% 29.93 in 10.0 mi South 11.5 mph - N/A   Mostly Cloudy
5:53 PM 89.1 °F 92.1 °F 66.9 °F 48% 29.93 in 10.0 mi SSE 9.2 mph - N/A   Clear
6:53 PM 86.0 °F 88.8 °F 66.9 °F 53% 29.92 in 10.0 mi SSE 6.9 mph - N/A   Clear
7:53 PM 82.9 °F 87.5 °F 71.1 °F 67% 29.93 in 10.0 mi SE 11.5 mph - N/A   Clear
8:53 PM 81.0 °F 84.4 °F 70.0 °F 69% 29.95 in 10.0 mi SSE 9.2 mph - N/A   Clear
10:53 PM 78.1 °F - 70.0 °F 76% 29.99 in 10.0 mi SSE 8.1 mph - N/A   Clear
11:53 PM 78.1 °F - 70.0 °F 76% 30.00 in 10.0 mi SSE 4.6 mph - N/A   Mostly Cloudy